TimeCDT,TemperatureF,Dew PointF,Humidity,Sea Level PressureIn,VisibilityMPH,Wind Direction,Wind SpeedMPH,Gust SpeedMPH,PrecipitationIn,Events,Conditions,WindDirDegrees,DateUTC
12:15 AM,84.9,63.3,48,29.84,10.0,SSE,4.6,-,N/A,,Clear,150,2013-09-01 05:15:00
12:35 AM,85.8,62.6,46,29.84,10.0,SSE,6.9,-,N/A,,Clear,160,2013-09-01 05:35:00
12:55 AM,86.4,63.1,46,29.84,10.0,SSE,9.2,-,N/A,,Clear,160,2013-09-01 05:55:00
1:15 AM,86.0,63.7,47,29.84,10.0,South,10.4,-,N/A,,Clear,170,2013-09-01 06:15:00
1:35 AM,85.3,64.4,49,29.84,10.0,South,6.9,-,N/A,,Clear,190,2013-09-01 06:35:00
1:55 AM,84.7,64.8,51,29.84,10.0,South,8.1,-,N/A,,Clear,190,2013-09-01 06:55:00
2:15 AM,84.7,64.9,51,29.84,10.0,South,9.2,-,N/A,,Clear,190,2013-09-01 07:15:00
2:35 AM,84.6,64.9,52,29.84,10.0,SSW,9.2,-,N/A,,Clear,200,2013-09-01 07:35:00
2:55 AM,83.8,65.3,53,29.85,10.0,SSW,10.4,-,N/A,,Clear,200,2013-09-01 07:55:00
3:15 AM,83.3,65.3,54,29.85,10.0,SSW,9.2,-,N/A,,Clear,200,2013-09-01 08:15:00
3:35 AM,83.3,65.5,55,29.85,10.0,South,9.2,-,N/A,,Clear,190,2013-09-01 08:35:00
3:55 AM,82.4,65.7,57,29.85,10.0,South,6.9,-,N/A,,Clear,190,2013-09-01 08:55:00
4:15 AM,81.9,66.2,59,29.85,10.0,SSW,8.1,-,N/A,,Clear,200,2013-09-01 09:15:00
4:35 AM,81.9,66.2,59,29.86,10.0,SSW,6.9,-,N/A,,Clear,200,2013-09-01 09:35:00
4:55 AM,81.5,66.4,60,29.87,10.0,SSW,5.8,-,N/A,,Clear,200,2013-09-01 09:55:00
5:15 AM,81.0,66.6,61,29.87,10.0,South,5.8,-,N/A,,Clear,190,2013-09-01 10:15:00
5:35 AM,80.6,66.7,63,29.87,10.0,SSW,8.1,-,N/A,,Clear,200,2013-09-01 10:35:00
5:55 AM,80.6,67.1,63,29.87,10.0,SSW,8.1,-,N/A,,Clear,200,2013-09-01 10:55:00
6:15 AM,80.4,67.1,64,29.87,10.0,SSW,9.2,-,N/A,,Clear,200,2013-09-01 11:15:00
6:35 AM,79.9,67.3,65,29.87,10.0,SSW,9.2,-,N/A,,Clear,210,2013-09-01 11:35:00
6:55 AM,79.9,67.6,66,29.88,10.0,SSW,9.2,-,N/A,,Clear,200,2013-09-01 11:55:00
7:15 AM,80.6,68.0,65,29.87,10.0,SSW,10.4,-,N/A,,Scattered Clouds,200,2013-09-01 12:15:00
7:35 AM,80.8,68.4,66,29.88,10.0,SSW,9.2,-,N/A,,Clear,200,2013-09-01 12:35:00
7:55 AM,81.1,68.9,66,29.88,10.0,South,9.2,-,N/A,,Clear,190,2013-09-01 12:55:00
8:15 AM,81.9,68.9,65,29.89,10.0,SSW,11.5,-,N/A,,Clear,200,2013-09-01 13:15:00
8:35 AM,82.6,69.1,64,29.89,10.0,SSW,13.8,-,N/A,,Clear,200,2013-09-01 13:35:00
8:55 AM,84.0,69.1,61,29.90,10.0,SSW,15.0,18.4,N/A,,Clear,200,2013-09-01 13:55:00
9:15 AM,85.1,69.1,59,29.91,10.0,SSW,11.5,-,N/A,,Clear,210,2013-09-01 14:15:00
9:35 AM,85.8,68.9,57,29.92,10.0,SSW,13.8,-,N/A,,Clear,210,2013-09-01 14:35:00
9:55 AM,87.4,68.5,53,29.92,10.0,SW,11.5,-,N/A,,Clear,220,2013-09-01 14:55:00
10:15 AM,88.3,68.5,52,29.92,10.0,SSW,11.5,-,N/A,,Clear,200,2013-09-01 15:15:00
10:35 AM,89.8,68.2,49,29.92,10.0,SSW,9.2,-,N/A,,Clear,200,2013-09-01 15:35:00
10:55 AM,91.2,68.0,46,29.91,10.0,SSW,9.2,-,N/A,,Clear,200,2013-09-01 15:55:00
11:15 AM,91.4,66.6,44,29.91,10.0,SW,11.5,-,N/A,,Clear,220,2013-09-01 16:15:00
11:35 AM,92.3,66.9,43,29.91,10.0,SSW,12.7,-,N/A,,Clear,210,2013-09-01 16:35:00
11:55 AM,92.7,66.2,42,29.91,10.0,SW,10.4,-,N/A,,Clear,220,2013-09-01 16:55:00
12:15 PM,94.1,65.8,39,29.91,10.0,SW,11.5,-,N/A,,Clear,230,2013-09-01 17:15:00
12:35 PM,94.1,65.5,39,29.90,10.0,WSW,9.2,-,N/A,,Clear,250,2013-09-01 17:35:00
12:55 PM,95.4,65.3,37,29.89,10.0,West,9.2,-,N/A,,Clear,260,2013-09-01 17:55:00
1:15 PM,96.8,65.8,36,29.89,10.0,SSW,6.9,16.1,N/A,,Clear,200,2013-09-01 18:15:00
1:35 PM,97.3,64.8,34,29.89,10.0,SSW,8.1,-,N/A,,Clear,200,2013-09-01 18:35:00
1:55 PM,97.5,64.2,33,29.88,10.0,SW,8.1,-,N/A,,Clear,220,2013-09-01 18:55:00
2:15 PM,99.3,63.1,30,29.87,10.0,SW,8.1,-,N/A,,Clear,220,2013-09-01 19:15:00
2:35 PM,99.9,62.2,29,29.86,10.0,West,5.8,-,N/A,,Clear,280,2013-09-01 19:35:00
2:55 PM,101.1,59.9,26,29.85,10.0,West,3.5,-,N/A,,Clear,280,2013-09-01 19:55:00
3:15 PM,100.8,59.5,26,29.84,10.0,SSE,5.8,-,N/A,,Clear,160,2013-09-01 20:15:00
3:35 PM,100.8,59.4,25,29.84,10.0,SW,5.8,-,N/A,,Clear,220,2013-09-01 20:35:00
3:55 PM,100.0,60.3,27,29.83,10.0,NW,4.6,-,N/A,,Clear,310,2013-09-01 20:55:00
4:15 PM,99.5,60.8,28,29.82,10.0,NNW,3.5,-,N/A,,Clear,330,2013-09-01 21:15:00
4:35 PM,100.2,59.7,26,29.81,10.0,WNW,4.6,-,N/A,,Clear,300,2013-09-01 21:35:00
4:55 PM,99.9,61.3,28,29.80,10.0,West,5.8,-,N/A,,Clear,280,2013-09-01 21:55:00
5:15 PM,100.6,60.8,27,29.80,10.0,West,6.9,-,N/A,,Clear,260,2013-09-01 22:15:00
5:35 PM,101.3,59.7,25,29.80,10.0,West,4.6,-,N/A,,Clear,260,2013-09-01 22:35:00
5:55 PM,101.3,60.1,26,29.79,10.0,SW,4.6,-,N/A,,Clear,230,2013-09-01 22:55:00
6:15 PM,100.2,60.6,27,29.81,10.0,West,3.5,-,N/A,,Clear,270,2013-09-01 23:15:00
6:35 PM,99.7,60.1,27,29.81,10.0,Calm,Calm,-,N/A,,Clear,0,2013-09-01 23:35:00
6:55 PM,98.6,61.2,29,29.81,10.0,Calm,Calm,-,N/A,,Clear,0,2013-09-01 23:55:00
7:15 PM,97.0,62.1,31,29.81,10.0,Calm,Calm,-,N/A,,Clear,0,2013-09-02 00:15:00
7:35 PM,96.3,59.9,30,29.81,10.0,Calm,Calm,-,N/A,,Clear,0,2013-09-02 00:35:00
7:55 PM,95.2,59.9,31,29.81,10.0,Calm,Calm,-,N/A,,Clear,0,2013-09-02 00:55:00
8:15 PM,93.7,61.2,34,29.82,7.0,SE,8.1,-,N/A,,Clear,140,2013-09-02 01:15:00
8:35 PM,92.8,62.8,37,29.83,10.0,SSE,10.4,-,N/A,,Clear,160,2013-09-02 01:35:00
8:55 PM,91.8,62.6,38,29.84,10.0,SSE,9.2,-,N/A,,Clear,160,2013-09-02 01:55:00
9:15 PM,91.0,62.8,39,29.85,10.0,South,4.6,-,N/A,Thunderstorm,Scattered Clouds,170,2013-09-02 02:15:00
9:35 PM,90.0,65.5,44,29.87,10.0,WNW,9.2,-,N/A,,Clear,290,2013-09-02 02:35:00
9:55 PM,91.4,62.8,38,29.88,10.0,Calm,Calm,-,N/A,,Scattered Clouds,0,2013-09-02 02:55:00
10:15 PM,86.0,68.7,56,29.88,10.0,East,8.1,-,N/A,Rain-Thunderstorm,Light Thunderstorms and Rain,100,2013-09-02 03:15:00
10:35 PM,82.6,70.3,66,29.88,10.0,SE,8.1,-,N/A,,Scattered Clouds,140,2013-09-02 03:35:00
10:55 PM,83.3,70.0,64,29.88,10.0,SSE,8.1,-,N/A,,Clear,150,2013-09-02 03:55:00
11:15 PM,86.2,68.0,54,29.88,10.0,SSE,5.8,-,N/A,,Clear,160,2013-09-02 04:15:00
11:35 PM,84.2,71.4,65,29.88,10.0,ESE,6.9,-,N/A,,Clear,110,2013-09-02 04:35:00
11:55 PM,81.3,71.4,72,29.89,10.0,ENE,9.2,-,N/A,,Scattered Clouds,70,2013-09-02 04:55:00